Weather History for Pullman, WA

Change the Weather History Date:

Monday, March 25, 2013

  Actual Average Record
Temperature  
Mean Temperature 42 °F 42 °F  
Max Temperature 52 °F 51 °F 73 °F (1960)
Min Temperature 31 °F 33 °F 12 °F (1955)
Degree Days  
Heating Degree Days 23 23  
Month to date heating degree days 629 623  
Since 1 July heating degree days 5055 5326  
Cooling Degree Days 0 0  
Month to date cooling degree days 0 0  
Year to date cooling degree days 0 0  
Moisture  
Dew Point 24 °F    
Average Humidity 50    
Maximum Humidity 63    
Minimum Humidity 36    
Precipitation  
Precipitation 0.00 in 0.07 in 0.65 in (2006)
Month to date precipitation 0.89 1.66  
Year to date precipitation 3.23 5.00  
Sea Level Pressure  
Sea Level Pressure 30.11 in    
Wind  
Wind Speed 8 mph (East)    
Max Wind Speed 20 mph    
Max Gust Speed 23 mph    
Visibility 10 miles    
Events      
T = Trace of Precipitation, MM = Missing Value Source: NWS Daily Summary

Daily Weather History Graph

Daily Weather History Graph

Search for Another Location

Airport:

Trip Planner

Search our weather history database for the weather conditions in past years. The results will help you decide how hot, cold, wet, or windy it might be!

Date:

Astronomy

Mar. 25, 2013 Rise Set
Actual Time 6:40 AM PDT 7:08 PM PDT
Civil Twilight 6:10 AM PDT 7:38 PM PDT
Nautical Twilight 5:34 AM PDT 8:14 PM PDT
Astronomical Twilight 4:57 AM PDT 8:52 PM PDT
Moon 5:42 PM PDT (3/25) 5:31 AM PDT (3/25)
Length of Visible Light 13h 28m
Length of Day
12h 27m
Waxing Gibbous, 97% of the Moon is Illuminated
Mar 25
Waxing Gibbous
Mar 27
Full
Apr 2
Last Quarter
Apr 10
New
Apr 18
First Quarter

Hourly Weather History & Observations

Time (PDT) Temp. Windchill Dew Point Humidity Pressure Visibility Wind Dir Wind Speed Gust Speed Precip Events Conditions
12:53 AM 30.9 °F 22.2 °F 19.9 °F 64% 30.20 in 10.0 mi East 10.4 mph - N/A   Clear
1:53 AM 32.0 °F 22.5 °F 19.9 °F 61% 30.19 in 10.0 mi East 12.7 mph - N/A   Clear
2:53 AM 30.9 °F 22.2 °F 19.9 °F 64% 30.19 in 10.0 mi East 10.4 mph - N/A   Clear
3:53 AM 30.9 °F 21.7 °F 19.9 °F 64% 30.18 in 10.0 mi East 11.5 mph - N/A   Clear
4:53 AM 32.0 °F 23.0 °F 21.0 °F 64% 30.18 in 10.0 mi East 11.5 mph - N/A   Mostly Cloudy
5:53 AM 32.0 °F 22.5 °F 21.9 °F 66% 30.17 in 10.0 mi East 12.7 mph - N/A   Overcast
6:53 AM 32.0 °F 22.1 °F 21.9 °F 66% 30.18 in 10.0 mi East 13.8 mph - N/A   Overcast
7:53 AM 33.1 °F 22.6 °F 21.9 °F 64% 30.18 in 10.0 mi East 16.1 mph - N/A   Overcast
8:53 AM 34.0 °F 24.6 °F 21.9 °F 61% 30.18 in 10.0 mi ESE 13.8 mph - N/A   Overcast
9:53 AM 36.0 °F 26.3 °F 23.0 °F 59% 30.18 in 10.0 mi East 16.1 mph - N/A   Overcast
10:53 AM 39.0 °F 31.0 °F 24.1 °F 55% 30.17 in 10.0 mi ESE 13.8 mph - N/A   Overcast
11:53 AM 43.0 °F 37.7 °F 25.0 °F 49% 30.16 in 10.0 mi East 9.2 mph - N/A   Overcast
12:53 PM 46.9 °F - 26.1 °F 44% 30.13 in 10.0 mi ESE 6.9 mph - N/A   Mostly Cloudy
1:53 PM 46.9 °F - 23.0 °F 39% 30.12 in 10.0 mi SSE 9.2 mph - N/A   Overcast
2:53 PM 48.0 °F - 25.0 °F 41% 30.09 in 10.0 mi SSE 8.1 mph - N/A   Scattered Clouds
3:53 PM 50.0 °F - 25.0 °F 38% 30.06 in 10.0 mi East 6.9 mph - N/A   Scattered Clouds
4:53 PM 50.0 °F - 25.0 °F 38% 30.05 in 10.0 mi Variable 4.6 mph - N/A   Mostly Cloudy
5:53 PM 50.0 °F - 26.1 °F 39% 30.04 in 10.0 mi ESE 5.8 mph - N/A   Overcast
6:53 PM 48.0 °F - 28.0 °F 46% 30.02 in 10.0 mi East 8.1 mph - N/A   Overcast
7:53 PM 46.0 °F - 30.0 °F 54% 30.02 in 10.0 mi Calm Calm - N/A   Overcast
8:53 PM 44.1 °F 41.5 °F 28.9 °F 55% 30.03 in 10.0 mi ENE 4.6 mph - N/A   Overcast
9:53 PM 43.0 °F - 30.0 °F 60% 30.02 in 10.0 mi Calm Calm - N/A   Overcast
10:53 PM 42.1 °F - 30.0 °F 62% 30.01 in 10.0 mi Calm Calm - N/A   Overcast
11:53 PM 42.1 °F 39.2 °F 28.0 °F 58% 30.00 in 10.0 mi East 4.6 mph - N/A   Mostly Cloudy